Charleston, SC

10:33 PM EDT on March 22, 2017 (GMT -0400)
Charleston Executive

Weather History for KJZI - December, 2011

Change the Weather History Date:

Wednesday, December 21, 2011

  Actual Average (KCHS) Record (KCHS)
Temperature  
Mean Temperature 63 °F -  
Max Temperature 71 °F 61 °F 80 °F (2013)
Min Temperature 55 °F 39 °F 15 °F (1981)
Degree Days  
Heating Degree Days 2    
Growing Degree Days 13 (Base 50)    
Moisture  
Dew Point 60 °F    
Average Humidity 85    
Maximum Humidity 100    
Minimum Humidity 69    
Precipitation  
Precipitation 0.00 in - - ()
Sea Level Pressure  
Sea Level Pressure 30.12 in    
Wind  
Wind Speed 5 mph (SSW)    
Max Wind Speed 17 mph    
Max Gust Speed 29 mph    
Visibility 8 miles    
Events Rain , Thunderstorm    
Averages and records for this station are not official NWS values.
T = Trace of Precipitation, MM = Missing Value Source: NWS Daily Summary

Daily Weather History Graph

Daily Weather History Graph

Search for Another Location

Airport or City:

Trip Planner

Search our weather history database for the weather conditions in past years. The results will help you decide how hot, cold, wet, or windy it might be!

Date:

Astronomy

Dec. 21, 2011 Rise Set
Actual Time 7:18 AM EST 5:17 PM EST
Civil Twilight 6:50 AM EST 5:45 PM EST
Nautical Twilight 6:19 AM EST 6:16 PM EST
Astronomical Twilight 5:49 AM EST 6:46 PM EST
Moon 3:52 AM EST (12/21) 2:33 PM EST (12/21)
Length of Visible Light 10h 54m
Length of Day
9h 59m
Waning Crescent, 12% of the Moon is Illuminated
Dec 21
Waning Crescent
Dec 24
New
Jan 1
First Quarter
Jan 9
Full
Jan 16
Last Quarter

Hourly Weather History & Observations

Time (EST) Temp. Dew Point Humidity Pressure Visibility Wind Dir Wind Speed Gust Speed Precip Events Conditions
12:15 AM 57.2 °F 53.6 °F 88% 30.18 in 10.0 mi Calm Calm - 0.00 in   Overcast
12:35 AM 57.2 °F 55.4 °F 94% 30.18 in 10.0 mi Calm Calm - 0.00 in   Overcast
12:55 AM 55.4 °F 53.6 °F 94% 30.17 in 8.0 mi Calm Calm - 0.00 in   Mostly Cloudy
1:15 AM 55.4 °F 53.6 °F 94% 30.17 in 9.0 mi Calm Calm - 0.00 in   Scattered Clouds
1:35 AM 55.4 °F 55.4 °F 100% 30.16 in 9.0 mi Calm Calm - 0.00 in   Scattered Clouds
1:55 AM 57.2 °F 55.4 °F 94% 30.15 in 9.0 mi Calm Calm - 0.00 in   Mostly Cloudy
2:15 AM 57.2 °F 55.4 °F 94% 30.16 in 10.0 mi Calm Calm - 0.00 in   Mostly Cloudy
2:35 AM 55.4 °F 53.6 °F 94% 30.15 in 8.0 mi Calm Calm - 0.00 in   Partly Cloudy
2:55 AM 57.2 °F 55.4 °F 94% 30.14 in 8.0 mi Calm Calm - 0.00 in   Clear
3:15 AM 57.2 °F 55.4 °F 94% 30.14 in 7.0 mi Calm Calm - 0.00 in   Clear
4:15 AM 57.2 °F 55.4 °F 94% 30.13 in 7.0 mi Calm Calm - 0.00 in   Scattered Clouds
4:35 AM 60.8 °F 57.2 °F 88% 30.13 in 7.0 mi Calm Calm - 0.00 in   Scattered Clouds
4:55 AM 60.8 °F 57.2 °F 88% 30.13 in 6.0 mi Calm Calm - 0.00 in   Partly Cloudy
5:15 AM 60.8 °F 59.0 °F 94% 30.13 in 5.0 mi Calm Calm - 0.00 in   Scattered Clouds
5:35 AM 60.8 °F 59.0 °F 94% 30.12 in 5.0 mi Calm Calm - 0.00 in   Mostly Cloudy
5:55 AM 60.8 °F 60.8 °F 100% 30.14 in 5.0 mi Calm Calm - 0.00 in   Scattered Clouds
6:35 AM 62.6 °F 60.8 °F 94% 30.13 in 5.0 mi South 3.5 mph - 0.00 in   Partly Cloudy
6:55 AM 62.6 °F 60.8 °F 94% 30.13 in 6.0 mi SSE 3.5 mph - 0.00 in   Partly Cloudy
7:15 AM 62.6 °F 60.8 °F 94% 30.13 in 5.0 mi South 3.5 mph - 0.00 in   Clear
7:35 AM 62.6 °F 62.6 °F 100% 30.13 in 6.0 mi SSW 4.6 mph - 0.00 in   Mostly Cloudy
7:55 AM 66.2 °F 62.6 °F 88% 30.13 in 6.0 mi South 6.9 mph - 0.00 in   Overcast
8:35 AM 66.2 °F 62.6 °F 88% 30.15 in 6.0 mi SSW 4.6 mph - 0.00 in   Overcast
8:55 AM 66.2 °F 62.6 °F 88% 30.16 in 7.0 mi SSW 5.8 mph - 0.00 in Thunderstorm Overcast
9:15 AM 66.2 °F 62.6 °F 88% 30.16 in 6.0 mi SW 6.9 mph - 0.00 in   Overcast
9:35 AM 68.0 °F 62.6 °F 83% 30.16 in 7.0 mi SSW 9.2 mph - 0.00 in   Overcast
9:55 AM 68.0 °F 62.6 °F 83% 30.17 in 7.0 mi SSW 10.4 mph - 0.00 in   Scattered Clouds
10:35 AM 69.8 °F 62.6 °F 78% 30.17 in 8.0 mi SSW 12.7 mph 20.7 mph 0.00 in   Partly Cloudy
10:55 AM 69.8 °F 60.8 °F 73% 30.17 in 8.0 mi SW 12.7 mph 23.0 mph 0.00 in   Mostly Cloudy
11:15 AM 69.8 °F 60.8 °F 73% 30.17 in 8.0 mi SW 15.0 mph 20.7 mph 0.00 in   Mostly Cloudy
11:35 AM 69.8 °F 60.8 °F 73% 30.16 in 8.0 mi SW 15.0 mph 26.5 mph 0.00 in   Mostly Cloudy
11:55 AM 71.6 °F 60.8 °F 69% 30.15 in 8.0 mi SW 17.3 mph 26.5 mph 0.00 in   Scattered Clouds
12:15 PM 69.8 °F 60.8 °F 73% 30.13 in 9.0 mi SW 17.3 mph 26.5 mph 0.00 in   Partly Cloudy
12:35 PM 69.8 °F 60.8 °F 73% 30.12 in 8.0 mi SW 16.1 mph 28.8 mph 0.00 in   Partly Cloudy
1:15 PM 69.8 °F 60.8 °F 73% 30.11 in 9.0 mi SSW 16.1 mph 21.9 mph 0.00 in   Mostly Cloudy
1:35 PM 69.8 °F 60.8 °F 73% 30.10 in 8.0 mi SSW 13.8 mph 24.2 mph 0.00 in Rain Light Rain
1:55 PM 69.8 °F 60.8 °F 73% 30.09 in 8.0 mi SW 13.8 mph 21.9 mph 0.00 in   Partly Cloudy
2:15 PM 66.2 °F 60.8 °F 83% 30.08 in 3.0 mi SW 11.5 mph 16.1 mph 0.00 in   Haze
2:35 PM 66.2 °F 62.6 °F 88% 30.07 in 5.0 mi SSW 11.5 mph 19.6 mph 0.00 in   Haze
2:55 PM 68.0 °F 60.8 °F 78% 30.07 in 7.0 mi SW 12.7 mph 17.3 mph 0.00 in   Partly Cloudy
3:15 PM 68.0 °F 60.8 °F 78% 30.07 in 8.0 mi SSW 11.5 mph 18.4 mph 0.00 in   Scattered Clouds
3:55 PM 68.0 °F 60.8 °F 78% 30.07 in 8.0 mi SSW 10.4 mph 17.3 mph 0.00 in   Mostly Cloudy
4:15 PM 66.2 °F 60.8 °F 83% 30.07 in 5.0 mi SSW 8.1 mph - 0.00 in   Haze
4:35 PM 66.2 °F 60.8 °F 83% 30.08 in 7.0 mi SSW 9.2 mph 16.1 mph 0.00 in   Scattered Clouds
4:55 PM 66.2 °F 60.8 °F 83% 30.08 in 8.0 mi SSW 8.1 mph - 0.00 in   Partly Cloudy
5:15 PM 66.2 °F 60.8 °F 83% 30.08 in 7.0 mi SSW 6.9 mph - 0.00 in   Scattered Clouds
5:35 PM 66.2 °F 60.8 °F 83% 30.07 in 8.0 mi SSW 9.2 mph - 0.00 in   Mostly Cloudy
5:55 PM 64.4 °F 60.8 °F 88% 30.09 in 8.0 mi SSW 8.1 mph - 0.00 in   Partly Cloudy
6:15 PM 64.4 °F 60.8 °F 88% 30.08 in 8.0 mi South 10.4 mph - 0.00 in   Partly Cloudy
6:35 PM 64.4 °F 60.8 °F 88% 30.09 in 9.0 mi South 10.4 mph - 0.00 in   Scattered Clouds
6:55 PM 66.2 °F 60.8 °F 83% 30.09 in 10.0 mi SSW 8.1 mph - 0.00 in   Mostly Cloudy
7:15 PM 66.2 °F 60.8 °F 83% 30.10 in 9.0 mi SSW 8.1 mph - 0.00 in   Mostly Cloudy
7:55 PM 66.2 °F 60.8 °F 83% 30.11 in 10.0 mi SSW 8.1 mph - 0.00 in   Overcast
8:15 PM 66.2 °F 60.8 °F 83% 30.10 in 10.0 mi SSW 8.1 mph - 0.00 in   Mostly Cloudy
8:35 PM 64.4 °F 60.8 °F 88% 30.10 in 10.0 mi SSW 9.2 mph - 0.00 in   Scattered Clouds
8:55 PM 66.2 °F 60.8 °F 83% 30.10 in 10.0 mi SSW 8.1 mph - 0.00 in   Scattered Clouds
9:15 PM 66.2 °F 60.8 °F 83% 30.10 in 10.0 mi SSW 8.1 mph - 0.00 in   Partly Cloudy
9:35 PM 66.2 °F 60.8 °F 83% 30.12 in 10.0 mi SW 8.1 mph - 0.00 in   Mostly Cloudy
9:55 PM 66.2 °F 60.8 °F 83% 30.11 in 10.0 mi SSW 11.5 mph - 0.00 in   Mostly Cloudy
10:15 PM 66.2 °F 60.8 °F 83% 30.11 in 10.0 mi SW 11.5 mph - 0.00 in   Mostly Cloudy
10:35 PM 66.2 °F 60.8 °F 83% 30.11 in 10.0 mi SSW 9.2 mph - 0.00 in   Partly Cloudy
10:55 PM 66.2 °F 60.8 °F 83% 30.11 in 10.0 mi SSW 9.2 mph - 0.00 in   Clear
11:15 PM 66.2 °F 60.8 °F 83% 30.10 in 10.0 mi SSW 10.4 mph - 0.00 in   Clear
11:35 PM 66.2 °F 60.8 °F 83% 30.09 in 10.0 mi SSW 6.9 mph - 0.00 in   Clear
11:55 PM 64.4 °F 60.8 °F 88% 30.09 in 9.0 mi SSW 8.1 mph - 0.00 in   Clear